Riverside, CA

7:17 AM PDT on June 18, 2018 (GMT -0700)
Riverside Municipal

Weather History for KRAL - June, 2018

Change the Weather History Date:

Wednesday, June 13, 2018

  Actual Average Record
Temperature  
Mean Temperature 79 °F 72 °F  
Max Temperature 96 °F 84 °F 105 °F (1917)
Min Temperature 62 °F 59 °F 40 °F (1894)
Degree Days  
Heating Degree Days 0 0  
Month to date heating degree days 0 0  
Since 1 June heating degree days 0 0  
Since 1 July heating degree days 827 1444  
Cooling Degree Days 14 7  
Month to date cooling degree days 125 74  
Year to date cooling degree days 324 251  
Since 1 June cooling degree days 125 74  
Growing Degree Days 29 (Base 50)    
Moisture  
Dew Point 51 °F    
Average Humidity 52    
Maximum Humidity 90    
Minimum Humidity 14    
Precipitation  
Precipitation 0.00 in 0.01 in 0.00 in (2018)
Month to date precipitation 0.00 0.05  
Year to date precipitation 4.20 9.14  
Sea Level Pressure  
Sea Level Pressure 29.76 in    
Wind  
Wind Speed 6 mph (West)    
Max Wind Speed 21 mph    
Max Gust Speed 27 mph    
Visibility 10 miles    
Events      
T = Trace of Precipitation, MM = Missing Value Source: NWS Daily Summary

Daily Weather History Graph

Daily Weather History Graph

Search for Another Location

Airport or City:

Astronomy

Jun. 13, 2018 Rise Set
Actual Time 5:38 AM PDT 8:01 PM PDT
Civil Twilight 5:08 AM PDT 8:30 PM PDT
Nautical Twilight 4:33 AM PDT 9:06 PM PDT
Astronomical Twilight 3:53 AM PDT 9:46 PM PDT
Moon 5:40 AM PDT (6/13) 8:05 PM PDT (6/13)
Length of Visible Light 15h 21m
Length of Day
14h 23m
Waning Crescent, 0% of the Moon is Illuminated
Jun 13
Waning Crescent
Jun 13
New
Jun 20
First Quarter
Jun 27
Full
Jul 6
Last Quarter

Hourly Weather History & Observations

Time (PDT) Temp. Heat Index Dew Point Humidity Pressure Visibility Wind Dir Wind Speed Gust Speed Precip Events Conditions
12:53 AM 69.1 °F - 57.9 °F 68% 29.78 in 10.0 mi Calm Calm - N/A   Clear
1:53 AM 66.9 °F - 57.9 °F 73% 29.77 in 10.0 mi Calm Calm - N/A   Clear
2:53 AM 64.9 °F - 57.9 °F 78% 29.75 in 10.0 mi West 3.5 mph - N/A   Clear
3:53 AM 64.9 °F - 57.9 °F 78% 29.75 in 10.0 mi Calm Calm - N/A   Clear
4:53 AM 64.9 °F - 59.0 °F 81% 29.77 in 10.0 mi NW 3.5 mph - N/A   Clear
5:53 AM 62.1 °F - 59.0 °F 90% 29.78 in 8.0 mi West 3.5 mph - N/A   Clear
6:53 AM 64.0 °F - 59.0 °F 84% 29.79 in 8.0 mi Calm Calm - N/A   Clear
7:53 AM 68.0 °F - 57.9 °F 70% 29.80 in 10.0 mi Calm Calm - N/A   Scattered Clouds
8:53 AM 73.9 °F - 57.9 °F 57% 29.80 in 10.0 mi Calm Calm - N/A   Scattered Clouds
9:53 AM 79.0 °F - 57.0 °F 47% 29.79 in 10.0 mi Variable 3.5 mph - N/A   Scattered Clouds
10:53 AM 86.0 °F 84.2 °F 54.0 °F 33% 29.78 in 10.0 mi Variable 3.5 mph - N/A   Scattered Clouds
11:53 AM 90.0 °F - 48.0 °F 24% 29.77 in 10.0 mi Variable 5.8 mph - N/A   Scattered Clouds
12:53 PM 95.0 °F - 44.1 °F 17% 29.77 in 10.0 mi NW 6.9 mph - N/A   Clear
1:53 PM 96.1 °F - 48.0 °F 19% 29.75 in 10.0 mi West 13.8 mph 21.9 mph N/A   Clear
2:53 PM 93.9 °F - 42.1 °F 17% 29.75 in 10.0 mi West 15.0 mph 26.5 mph N/A   Clear
3:53 PM 93.0 °F - 37.0 °F 14% 29.73 in 10.0 mi West 17.3 mph 27.6 mph N/A   Clear
4:53 PM 91.9 °F - 39.9 °F 16% 29.73 in 10.0 mi West 15.0 mph 20.7 mph N/A   Clear
5:53 PM 90.0 °F - 34.0 °F 14% 29.72 in 10.0 mi West 13.8 mph 21.9 mph N/A   Clear
6:53 PM 87.1 °F - 35.1 °F 16% 29.73 in 10.0 mi West 12.7 mph - N/A   Clear
7:53 PM 81.0 °F - 44.1 °F 27% 29.73 in 10.0 mi West 11.5 mph - N/A   Clear
8:53 PM 78.1 °F - 48.0 °F 35% 29.75 in 10.0 mi West 5.8 mph - N/A   Clear
9:53 PM 72.0 °F - 53.1 °F 51% 29.78 in 10.0 mi West 5.8 mph - N/A   Clear
10:53 PM 71.1 °F - 55.0 °F 57% 29.78 in 10.0 mi West 4.6 mph - N/A   Clear
11:53 PM 70.0 °F - 55.9 °F 61% 29.78 in 10.0 mi Calm Calm - N/A   Clear